Weather History for Buckland, AK

Change the Weather History Date:

Tuesday, February 4, 2014

  Actual Average (PASK) Record (PASK)
Temperature  
Mean Temperature 24 °F -  
Max Temperature 28 °F 2 °F 28 °F (2000)
Min Temperature 19 °F -7 °F -45 °F (1999)
Degree Days  
Heating Degree Days 42    
Moisture  
Dew Point 19 °F    
Average Humidity 81    
Maximum Humidity 93    
Minimum Humidity 68    
Precipitation  
Precipitation 0.00 in - - ()
Sea Level Pressure  
Sea Level Pressure 30.52 in    
Wind  
Wind Speed 18 mph (ESE)    
Max Wind Speed 23 mph    
Max Gust Speed 32 mph    
Visibility 8 miles    
Events      
Averages and records for this station are not official NWS values.
T = Trace of Precipitation, MM = Missing Value Source: NWS Daily Summary

Daily Weather History Graph

Daily Weather History Graph

Search for Another Location

Airport:

Trip Planner

Search our weather history database for the weather conditions in past years. The results will help you decide how hot, cold, wet, or windy it might be!

Date:

Astronomy

Feb. 04, 2014 Rise Set
Actual Time 10:28 AM AKST 5:29 PM AKST
Civil Twilight 9:27 AM AKST 6:30 PM AKST
Nautical Twilight 8:25 AM AKST 7:33 PM AKST
Astronomical Twilight 7:25 AM AKST 8:32 PM AKST
Moon 10:38 AM AKST (2/4) 12:56 AM AKST (2/4)
Length of Visible Light 9h 02m
Length of Day
7h 00m
Waxing Crescent, 30% of the Moon is Illuminated
Feb 4
Waxing Crescent
Feb 6
First Quarter
Feb 14
Full
Feb 22
Last Quarter
Feb 28
New

Hourly Weather History & Observations

Time (AKST) Temp. Windchill Dew Point Humidity Pressure Visibility Wind Dir Wind Speed Gust Speed Precip Events Conditions
12:16 AM 19.4 °F 3.2 °F 12.2 °F 74% 30.45 in 10.0 mi ESE 20.7 mph 26.5 mph N/A   Overcast
12:36 AM 19.4 °F 2.8 °F 12.2 °F 74% 30.46 in 10.0 mi ESE 21.9 mph 31.1 mph N/A   Overcast
12:56 AM 19.4 °F 3.2 °F 12.2 °F 74% 30.47 in 10.0 mi ESE 20.7 mph 27.6 mph N/A   Overcast
1:16 AM 19.4 °F 3.2 °F 12.2 °F 74% 30.47 in 10.0 mi East 20.7 mph 28.8 mph N/A   Overcast
1:36 AM 19.4 °F 3.2 °F 12.2 °F 74% 30.47 in 10.0 mi East 20.7 mph 27.6 mph N/A   Overcast
1:56 AM 19.4 °F 2.8 °F 12.2 °F 74% 30.48 in 10.0 mi ESE 21.9 mph 27.6 mph N/A   Overcast
2:16 AM 19.4 °F 4.1 °F 12.2 °F 74% 30.48 in 10.0 mi East 18.4 mph 27.6 mph N/A   Mostly Cloudy
2:36 AM 19.4 °F 4.1 °F 12.2 °F 74% 30.49 in 10.0 mi East 18.4 mph 26.5 mph N/A   Mostly Cloudy
2:56 AM 19.4 °F 4.1 °F 12.2 °F 74% 30.49 in 10.0 mi East 18.4 mph 24.2 mph N/A   Overcast
3:16 AM 19.4 °F 4.1 °F 12.2 °F 74% 30.49 in 10.0 mi East 18.4 mph 24.2 mph N/A   Overcast
3:36 AM 21.2 °F 6.0 °F 12.2 °F 68% 30.49 in 10.0 mi ESE 19.6 mph 25.3 mph N/A   Overcast
3:56 AM 21.2 °F 6.0 °F 12.2 °F 68% 30.49 in 10.0 mi East 19.6 mph 25.3 mph N/A   Overcast
4:16 AM 21.2 °F 6.4 °F 14.0 °F 74% 30.49 in 10.0 mi ESE 18.4 mph - N/A   Overcast
4:36 AM 21.2 °F 6.4 °F 12.2 °F 68% 30.50 in 10.0 mi ESE 18.4 mph 25.3 mph N/A   Overcast
4:56 AM 21.2 °F 6.0 °F 12.2 °F 68% 30.50 in 10.0 mi ESE 19.6 mph 23.0 mph N/A   Scattered Clouds
5:16 AM 21.2 °F 6.0 °F 12.2 °F 68% 30.50 in 10.0 mi ESE 19.6 mph 25.3 mph N/A   Partly Cloudy
5:36 AM 21.2 °F 7.8 °F 12.2 °F 68% 30.50 in 10.0 mi ESE 15.0 mph 26.5 mph N/A   Mostly Cloudy
5:56 AM 21.2 °F 6.0 °F 14.0 °F 74% 30.49 in 10.0 mi East 19.6 mph 27.6 mph N/A   Overcast
6:16 AM 21.2 °F 6.4 °F 14.0 °F 74% 30.49 in 10.0 mi ESE 18.4 mph 26.5 mph N/A   Overcast
6:36 AM 21.2 °F 7.8 °F 14.0 °F 74% 30.50 in 10.0 mi East 15.0 mph 28.8 mph N/A   Overcast
6:56 AM 21.2 °F 6.0 °F 15.8 °F 80% 30.50 in 10.0 mi ESE 19.6 mph 27.6 mph N/A   Overcast
7:16 AM 21.2 °F 6.0 °F 17.6 °F 86% 30.51 in 10.0 mi ESE 19.6 mph 25.3 mph N/A   Overcast
7:36 AM 21.2 °F 5.6 °F 15.8 °F 80% 30.51 in 10.0 mi ESE 20.7 mph 28.8 mph N/A   Overcast
7:56 AM 21.2 °F 5.2 °F 15.8 °F 80% 30.50 in 10.0 mi ESE 21.9 mph 27.6 mph N/A   Overcast
8:16 AM 21.2 °F 4.9 °F 15.8 °F 80% 30.51 in 7.0 mi ESE 23.0 mph 31.1 mph N/A   Overcast
8:36 AM 21.2 °F 5.6 °F 17.6 °F 86% 30.51 in 5.0 mi ESE 20.7 mph 27.6 mph N/A   Overcast
8:56 AM 23.0 °F 8.3 °F 17.6 °F 80% 30.51 in 7.0 mi ESE 19.6 mph 27.6 mph N/A   Overcast
9:16 AM 23.0 °F 8.0 °F 17.6 °F 80% 30.52 in 10.0 mi ESE 20.7 mph 27.6 mph N/A   Overcast
9:36 AM 23.0 °F 8.0 °F 17.6 °F 80% 30.52 in 10.0 mi ESE 20.7 mph 28.8 mph N/A   Overcast
9:56 AM 23.0 °F 8.7 °F 17.6 °F 80% 30.52 in 10.0 mi East 18.4 mph 26.5 mph N/A   Overcast
10:16 AM 23.0 °F 8.7 °F 17.6 °F 80% 30.52 in 10.0 mi East 18.4 mph 25.3 mph N/A   Overcast
10:36 AM 23.0 °F 9.2 °F 17.6 °F 80% 30.53 in 10.0 mi East 17.3 mph 26.5 mph N/A   Overcast
10:56 AM 24.8 °F 9.6 °F 17.6 °F 74% 30.53 in 10.0 mi East 23.0 mph 27.6 mph N/A   Overcast
11:16 AM 24.8 °F 10.3 °F 19.4 °F 80% 30.53 in 10.0 mi East 20.7 mph 29.9 mph N/A   Overcast
11:36 AM 24.8 °F 10.0 °F 19.4 °F 80% 30.52 in 9.0 mi East 21.9 mph 26.5 mph N/A   Overcast
11:56 AM 24.8 °F 10.7 °F 19.4 °F 80% 30.52 in 5.0 mi East 19.6 mph 28.8 mph N/A   Overcast
12:16 PM 24.8 °F 9.6 °F 19.4 °F 80% 30.52 in 10.0 mi East 23.0 mph 28.8 mph N/A   Mostly Cloudy
12:36 PM 24.8 °F 10.3 °F 19.4 °F 80% 30.52 in 10.0 mi East 20.7 mph 27.6 mph N/A   Overcast
12:56 PM 24.8 °F 10.7 °F 19.4 °F 80% 30.53 in 10.0 mi East 19.6 mph 26.5 mph N/A   Mostly Cloudy
1:16 PM 24.8 °F 10.3 °F 19.4 °F 80% 30.53 in 3.0 mi East 20.7 mph 32.2 mph N/A   Overcast
1:36 PM 24.8 °F 10.3 °F 21.2 °F 86% 30.52 in 3.0 mi East 20.7 mph 26.5 mph N/A   Overcast
1:56 PM 24.8 °F 10.7 °F 21.2 °F 86% 30.52 in 2.5 mi East 19.6 mph 25.3 mph N/A   Overcast
2:16 PM 24.8 °F 10.7 °F 21.2 °F 86% 30.52 in 1.8 mi East 19.6 mph 28.8 mph N/A   Overcast
2:36 PM 24.8 °F 10.3 °F 21.2 °F 86% 30.52 in 2.0 mi East 20.7 mph 27.6 mph N/A   Overcast
2:56 PM 24.8 °F 9.6 °F 21.2 °F 86% 30.51 in 1.8 mi East 23.0 mph 29.9 mph N/A   Overcast
3:16 PM 24.8 °F 10.3 °F 21.2 °F 86% 30.51 in 1.5 mi East 20.7 mph 28.8 mph N/A   Overcast
3:36 PM 24.8 °F 9.6 °F 21.2 °F 86% 30.51 in 1.8 mi East 23.0 mph 29.9 mph N/A   Overcast
3:56 PM 24.8 °F 9.6 °F 21.2 °F 86% 30.51 in 1.8 mi East 23.0 mph 28.8 mph N/A   Overcast
4:16 PM 24.8 °F 10.3 °F 21.2 °F 86% 30.51 in 1.2 mi East 20.7 mph 26.5 mph N/A   Overcast
4:36 PM 24.8 °F 10.7 °F 21.2 °F 86% 30.51 in 1.5 mi East 19.6 mph 28.8 mph N/A   Overcast
4:56 PM 24.8 °F 10.3 °F 21.2 °F 86% 30.51 in 1.8 mi East 20.7 mph 28.8 mph N/A   Overcast
5:16 PM 24.8 °F 11.5 °F 21.2 °F 86% 30.52 in 1.2 mi East 17.3 mph 27.6 mph N/A   Overcast
5:36 PM 24.8 °F 11.1 °F 21.2 °F 86% 30.51 in 2.0 mi ESE 18.4 mph 25.3 mph N/A   Overcast
5:56 PM 24.8 °F 11.5 °F 21.2 °F 86% 30.52 in 2.5 mi ESE 17.3 mph - N/A   Overcast
6:16 PM 26.6 °F 13.8 °F 21.2 °F 80% 30.53 in 3.0 mi ESE 17.3 mph 21.9 mph N/A   Overcast
6:36 PM 26.6 °F 14.3 °F 23.0 °F 86% 30.53 in 5.0 mi ESE 16.1 mph - N/A   Overcast
6:56 PM 26.6 °F 14.7 °F 23.0 °F 86% 30.54 in 6.0 mi ESE 15.0 mph 20.7 mph N/A   Overcast
7:16 PM 26.6 °F 15.7 °F 23.0 °F 86% 30.54 in 5.0 mi ESE 12.7 mph 19.6 mph N/A   Overcast
7:36 PM 26.6 °F 14.7 °F 23.0 °F 86% 30.54 in 4.0 mi ESE 15.0 mph 19.6 mph N/A   Overcast
7:56 PM 26.6 °F 15.2 °F 24.8 °F 93% 30.55 in 5.0 mi ESE 13.8 mph - N/A   Overcast
8:16 PM 26.6 °F 15.7 °F 24.8 °F 93% 30.55 in 10.0 mi ESE 12.7 mph - N/A   Overcast
8:36 PM 26.6 °F 16.8 °F 24.8 °F 93% 30.56 in 10.0 mi ESE 10.4 mph - N/A   Overcast
8:56 PM 26.6 °F 18.2 °F 24.8 °F 93% 30.57 in 10.0 mi ESE 8.1 mph - N/A   Overcast
9:16 PM 28.4 °F 21.2 °F 24.8 °F 86% 30.57 in 10.0 mi ESE 6.9 mph - N/A   Overcast
9:36 PM 26.6 °F 21.2 °F 24.8 °F 93% 30.57 in 10.0 mi SSE 4.6 mph - N/A   Overcast
9:56 PM 26.6 °F - 24.8 °F 93% 30.58 in 10.0 mi Calm Calm - N/A   Overcast
10:16 PM 28.4 °F - 24.8 °F 86% 30.58 in 10.0 mi Calm Calm - N/A   Overcast
10:36 PM 28.4 °F 24.6 °F 24.8 °F 86% 30.58 in 10.0 mi SSE 3.5 mph - N/A   Overcast
10:56 PM 28.4 °F 24.6 °F 24.8 °F 86% 30.59 in 10.0 mi NW 3.5 mph - N/A   Overcast
11:16 PM 28.4 °F - 24.8 °F 86% 30.60 in 10.0 mi Calm Calm - N/A   Overcast
11:36 PM 28.4 °F - 24.8 °F 86% 30.60 in 10.0 mi Calm Calm - N/A   Overcast
11:56 PM 28.4 °F - 24.8 °F 86% 30.60 in 10.0 mi Calm Calm - N/A   Overcast